Home > Weather > Gifhorn > Past weeks

Flag for Germany Past Weather in Gifhorn, Lower Saxony, Germany — Yesterday and Last 2 Weeks

Now
68 °F

Sunny.


Feels Like: 68 °F
Forecast: 53 / 65 °F
Wind: 12 mph from Southwest

Location: Braunschweig Wolfsburg

Current Time: Jul 1, 2016 at 10:03:02 AM

Latest Report: Jul 1, 2016 at 9:20 AM


Visibility: 10 mi

Pressure: 29.95 "Hg

Humidity: 73%

Dew Point: 59 °F

Location of GifhornLocation

Past Weather in Gifhorn — Graph

°F

Gifhorn Temperature Yesterday

Maximum temperature yesterday: 72 °F (at 2:20 PM)
Minimum temperature yesterday: 55 °F (at 5:50 AM)
Average temperature yesterday: 66 °F

High & Low Weather Summary for the Past Weeks

 TemperatureHumidityPressure
High90 °F (Jun 23, 3:50 PM)100% (Jun 17, 7:50 AM)30.21 "Hg (Jun 17, 7:50 AM)
Low50 °F (Jun 20, 6:50 AM)38% (Jun 23, 3:50 PM)29.56 "Hg (Jun 17, 5:20 AM)
Average68 °F66%29.98 "Hg
* Reported Jun 16 8:20 AM — Jul 1 8:20 AM, Gifhorn, Weather by CustomWeather, © 2016

Note: Actual official high and low records may vary slightly from our data, if they occured in-between our weather recording intervals... More about our weather records

Advertising

Gifhorn Weather History for the Previous 24 Hours

Scroll right to see more
 ConditionsComfort  
Time TempWeatherWind HumidityBarometerVisibility
8:20 AM
Fri, Jul 1
68 °FSunny.12 mph73%29.92 "Hg10 mi
7:50 AM68 °FSunny.8 mph73%29.92 "Hg10 mi
7:20 AM68 °FSunny.9 mph69%29.92 "Hg10 mi
6:50 AM66 °FSunny.9 mph73%29.92 "Hg10 mi
6:20 AM64 °FSunny.8 mph78%29.92 "Hg10 mi
10:50 PM
Thu, Jun 30
61 °FClear.6 mph88%29.95 "Hg10 mi
10:20 PM64 °FBroken clouds.5 mph78%29.95 "HgN/A
9:50 PM64 °FBroken clouds.No wind78%29.92 "HgN/A
9:20 PM68 °FSunny.5 mph64%29.92 "Hg10 mi
8:50 PM68 °FSunny.6 mph64%29.92 "Hg10 mi
8:20 PM68 °FSunny.6 mph64%29.92 "Hg10 mi
7:50 PM68 °FSunny.8 mph64%29.92 "Hg10 mi
7:20 PM70 °FSunny.8 mph60%29.92 "Hg10 mi
6:50 PM68 °FSunny.9 mph64%29.92 "Hg10 mi
6:20 PM70 °FSunny.10 mph57%29.92 "Hg10 mi
5:50 PM70 °FSunny.8 mph60%29.92 "Hg10 mi
5:20 PM68 °FBroken clouds.12 mph64%29.92 "HgN/A
4:50 PM70 °FBroken clouds.12 mph60%29.92 "HgN/A
4:20 PM70 °FBroken clouds.12 mph60%29.92 "HgN/A
3:50 PM72 °FBroken clouds.10 mph57%29.92 "HgN/A
3:20 PM68 °FBroken clouds.8 mph64%29.92 "HgN/A
2:50 PM70 °FPartly sunny.10 mph60%29.92 "HgN/A
2:20 PM72 °FPartly sunny.13 mph61%29.92 "HgN/A
1:50 PM70 °FBroken clouds.14 mph64%29.92 "HgN/A
1:20 PM70 °FBroken clouds.16 mph60%29.92 "HgN/A
12:50 PM68 °FScattered clouds.12 mph64%29.92 "HgN/A
12:20 PM68 °FBroken clouds.17 mph64%29.92 "HgN/A
11:50 AM66 °FPartly sunny.14 mph68%29.89 "HgN/A
11:20 AM64 °FPartly sunny.12 mph68%29.92 "HgN/A
10:50 AM64 °FOvercast.10 mph68%29.92 "HgN/A
10:20 AM64 °FPassing clouds.12 mph68%29.92 "HgN/A
Weather by CustomWeather, © 2016

See weather overviewHow to use our weather pages